#timestamp,LO_Frequency,Hit,StdDev 
1700758815.5,286047000.4,N
1700758835.4,286047000.3,N
1700758855.2,286047001.0,N
1700758875.0,286047001.2,N
1700758875.9,286047001.2,N
1700758895.8,286046998.3,N
1700758915.6,286046998.9,N
1700758935.4,286046999.3,N
1700758955.3,286047000.8,N
1700758975.1,286046998.5,N
1700758995.9,286046998.3,N
1700759015.7,286046999.2,N
1700759035.5,286046998.8,N
1700759055.4,286046999.0,N
1700759075.2,286046998.9,N
1700759095.1,286046999.0,N
1700759096.0,286046999.0,N
1700759115.8,286046999.3,N
1700759135.6,286046996.8,Y
1700759155.5,286046998.8,P
1700759175.3,286046999.2,P
1700759195.2,286046998.9,P
1700759215.9,286046997.2,Y
1700759235.7,286046998.2,P
1700759255.6,286047001.1,N
1700759275.4,286046998.4,N
1700759295.2,286046998.1,N
1700759315.1,286047000.4,N
1700759316.0,286047000.4,N
1700759335.8,286047002.8,N
1700759355.7,286047001.1,N
1700759375.5,286046998.5,N
1700759395.3,286047000.6,N
1700759415.2,286046999.9,N
1700759435.0,286047001.2,N
1700759435.9,286047001.2,N
1700759455.8,286047000.1,N
1700759475.6,286047000.2,N
1700759495.4,286047000.7,N
1700759515.3,286046998.2,N
1700759535.1,286047000.0,N
1700759555.9,286047000.6,N
1700759575.7,286047000.9,N
1700759595.5,286047000.3,N
1700759615.4,286046998.8,N
1700759635.2,286046998.2,N
1700759655.0,286047000.8,N
1700759655.9,286047000.8,N
1700759675.8,286046996.5,N
1700759695.6,286046997.2,N
1700759715.5,286046996.8,N
1700759735.3,286046999.6,N
1700759755.1,286046998.5,N
1700759775.9,286047001.2,N
1700759795.7,286047000.5,N
1700759815.6,286047001.0,N
1700759835.4,286046998.2,N
1700759855.2,286047001.2,N
1700759875.1,286047001.0,N
1700759876.0,286047001.0,N
1700759895.8,286047000.4,N
1700759915.6,286046999.9,N
1700759935.5,286047002.4,N
1700759955.3,286047002.2,N
1700759975.2,286047001.5,N
1700759995.9,286047002.3,N
1700760015.7,286047002.4,N
1700760035.6,286047002.4,N
1700760055.4,286047000.2,N
1700760075.2,286047002.4,N
1700760095.1,286047001.4,N
1700760096.0,286047001.4,N
1700760115.8,286047003.8,N
1700760135.7,286047004.4,N
1700760155.5,286047003.2,N
1700760175.3,286047003.4,N
1700760195.2,286047005.9,Y
1700760215.0,286047001.7,P
1700760215.9,286047011.9,P
1700760235.7,286047004.4,N
1700760255.6,286047004.4,N
1700760275.4,286047003.5,N
1700760295.3,286047003.5,N
1700760315.1,286047003.3,N
1700760316.0,286047003.3,N
1700760335.8,286047003.1,N
1700760355.7,286047005.2,N
1700760375.5,286047004.7,N
1700760395.3,286047004.6,N
1700760415.2,286047005.3,N
1700760435.0,286047007.5,Y
1700760435.9,286047011.9,P
1700760455.8,286047001.8,N
1700760475.6,286047003.7,N
1700760495.4,286047003.9,N
1700760515.3,286047001.9,N
1700760535.1,286047001.9,N
1700760555.9,286047001.9,N
1700760575.7,286047002.1,N
1700760595.5,286047003.9,N
1700760615.4,286047003.1,N
1700760635.2,286047005.1,N
1700760655.0,286047003.6,N
1700760655.9,286047003.6,N
1700760675.8,286047004.2,N
1700760695.6,286047004.2,N
1700760715.5,286047003.7,N
1700760735.3,286047003.5,N
1700760755.1,286047003.5,N
1700760775.9,286047003.3,N
1700760795.7,286047005.3,N
1700760815.5,286047005.1,N
1700760835.4,286047006.0,N
1700760855.2,286047003.0,N
1700760875.1,286047003.9,N
1700760876.0,286047003.9,N
1700760895.8,286047003.7,N
1700760915.6,286047003.0,N
1700760935.5,286047005.9,Y
1700760955.3,286046998.5,P
1700760975.2,286047000.0,N
1700760995.9,286047000.7,N
1700761015.7,286046999.8,N
1700761035.6,286047001.5,N
1700761055.4,286047002.4,N
1700761075.2,286047001.4,N
1700761095.1,286047003.7,N
1700761096.0,286047003.7,N
1700761115.8,286047003.2,N
1700761135.6,286047003.6,N
1700761155.5,286047003.2,N
1700761175.3,286047003.8,N
1700761195.2,286047003.8,N
1700761215.9,286047004.1,N
1700761235.7,286047004.4,N
1700761255.6,286047003.0,N
1700761275.4,286047003.6,N
1700761295.2,286047003.8,N
1700761315.1,286047004.3,N
1700761316.0,286047004.3,N
1700761335.8,286047003.5,N
1700761355.7,286047003.2,N
1700761375.5,286047003.2,N
1700761395.3,286047003.8,N
1700761415.2,286047004.0,N
1700761435.0,286047003.6,N
1700761435.9,286047003.6,N
1700761455.7,286047003.2,N
1700761475.6,286047003.2,N
1700761495.4,286047003.7,N
1700761515.3,286047002.9,N
1700761535.1,286047003.1,N
1700761536.0,286047003.1,Y
1700761555.8,286046998.5,P
1700761575.7,286046998.3,N
1700761595.5,286047000.8,N
1700761615.4,286047001.0,N
1700761635.2,286046998.7,N
1700761655.0,286046998.7,N
1700761655.9,286046998.7,N
1700761675.8,286046999.2,N
1700761695.6,286046998.9,N
1700761715.4,286046998.7,N
1700761735.3,286046998.5,N
1700761755.1,286047000.6,N
1700761775.9,286047000.6,N
1700761795.7,286047000.2,N
1700761815.5,286047002.7,N
1700761835.4,286047000.2,N
1700761855.2,286047000.0,N
1700761875.0,286047002.4,N
1700761875.9,286047002.4,N
1700761895.8,286047001.8,N
1700761915.6,286047004.0,N
1700761935.5,286047004.2,N
1700761955.3,286047003.5,N
1700761975.1,286047001.3,N
1700761995.9,286047004.4,N
1700762015.7,286047001.8,N
1700762035.5,286047001.3,N
1700762055.4,286047003.9,N
1700762075.2,286047003.7,N
1700762095.1,286047001.6,N
1700762096.0,286047001.6,N
1700762115.8,286047003.5,N
1700762135.6,286047003.9,N
1700762155.5,286047003.7,N
1700762175.3,286047003.2,N
1700762195.1,286047001.8,N
1700762215.9,286047004.1,N
1700762235.7,286047002.6,N
1700762255.6,286046999.8,N
1700762275.4,286047000.5,N
1700762295.2,286047002.3,N
1700762315.1,286047002.7,N
1700762316.0,286047002.7,N
1700762335.8,286047002.6,N
1700762355.6,286047002.3,N
1700762375.5,286047002.0,N
1700762395.4,286047003.9,Y
